Flag for Switzerland Weather past 2 weeks in Spiez, Bern, Switzerland

Now
59 °F

Cool.


Feels Like: 59 °F
Forecast: 40 / 53 °F
Wind: 3 mph from East

Location: Interlaken

Current Time: Apr 27, 2015 at 1:22:15 PM

Latest Report: Apr 27, 2015 at 12:00 PM


Visibility: N/A

Pressure: 29.55 "Hg

Humidity: 72%

Dew point: 49 °F

Location of SpiezLocation

Historic Weather in Spiez — Graph

°F

Spiez temperature yesterday

Maximum temperature yesterday: 68 °F (at 5:00 PM)
Minimum temperature yesterday: 47 °F (at 6:00 AM)
Average temperature yesterday: 56 °F

Past Weeks' High & Low Weather Summary

 TemperatureHumidityPressure
High72 °F (Apr 15, 6:00 PM)99% (Apr 18, 2:00 AM)30.50 "Hg (Apr 18, 2:00 AM)
Low36 °F (Apr 19, 6:00 AM)26% (Apr 14, 6:00 PM)29.55 "Hg (Apr 27, 12:00 PM)
Average54 °F66%30.09 "Hg
* Reported Apr 12 12:00 Noon — Apr 27 12:00 Noon, Spiez, Weather by CustomWeather, © 2015

Note: Actual official high and low records may vary slightly from our data, if they occured in-between our weather recording intervals... More about our weather records

Advertising

Spiez weather history for previous 24 hours

 ConditionsComfort  
Time TempWeatherWind HumidityBarometerVisibility
12:00 PM
Mon, Apr 27
59 °FCool.3 mph72%29.55 "HgN/A
11:00 AM57 °FCool.3 mph78%29.57 "HgN/A
10:00 AM54 °FCool.No wind78%29.58 "HgN/A
9:00 AM53 °FCool.2 mph83%29.60 "HgN/A
8:00 AM50 °FCool.1 mph84%29.62 "HgN/A
7:00 AM47 °FCool.2 mph89%29.62 "HgN/A
6:00 AM47 °FCool.1 mph90%29.62 "HgN/A
5:00 AM46 °FCool.3 mph90%29.64 "HgN/A
4:00 AM47 °FCool.2 mph91%29.65 "HgN/A
3:00 AM47 °FCool.3 mph87%29.66 "HgN/A
2:00 AM49 °FCool.1 mph85%29.68 "HgN/A
1:00 AM51 °FCool.7 mph82%29.67 "HgN/A
12:00 AM52 °FCool.2 mph85%29.68 "HgN/A
11:00 PM
Sun, Apr 26
52 °FCool.1 mph86%29.68 "HgN/A
10:00 PM53 °FCool.2 mph81%29.70 "HgN/A
9:00 PM56 °FCool.No wind76%29.68 "HgN/A
8:00 PM60 °FCool.7 mph64%29.65 "HgN/A
7:00 PM62 °FCool.8 mph66%29.63 "HgN/A
6:00 PM65 °FMild.9 mph62%29.63 "HgN/A
5:00 PM68 °FMild.2 mph51%29.62 "HgN/A
4:00 PM65 °FMild.7 mph60%29.67 "HgN/A
3:00 PM65 °FMild.8 mph51%29.70 "HgN/A
2:00 PM63 °FMild.5 mph54%29.73 "HgN/A
1:00 PM63 °FMild.6 mph58%29.76 "HgN/A
Weather by CustomWeather, © 2015

See weather overviewHow to use our weather pages